Location: Unspecified
(0.0000°N, 0.0000°E)
Time: 04:54:15
(UTC+00:00)

Cosmos 2266 Rocket - Pass Details

Date: 27 January 2013
Orbit: 935 x 1008 km, 82.9° (Epoch: 28 August)

Event Time Altitude Azimuth Distance (km) Brightness Sun altitude
Rises 19:26:56 0° 169° (S) 3,637 7.1 -17.6°
Reaches altitude 10° 19:29:36 10° 162° (SSE) 2,679 6.3 -18.2°
Maximum altitude 19:35:17 41° 93° (E) 1,342 4.3 -19.5°
Enters shadow 19:36:56 34° 57° (ENE) 1,499 4.4 -19.9°
